This is the latest recevied weather packets stored in our database for station/object WW5JC. If no packets are shown the sender has not sent any weather packets the latest 10 day(s).
| Time | Temp. | Humidity | Pressure | Rain* | Wind** | Luminosity | Snow |
|---|---|---|---|---|---|---|---|
| 1788145112 | 30.56° C | 56% | 1016.1 hPa | 0 mm | - | 0 W/m² | - |
| 1788144812 | 30.56° C | 55% | 1016 hPa | 0 mm | - | 0 W/m² | - |
| 1788144507 | 31.11° C | 55% | 1016.1 hPa | 0 mm | - | 0 W/m² | - |
| 1788144206 | 31.11° C | 54% | 1015.9 hPa | 0 mm | - | 0 W/m² | - |
| 1788143905 | 31.11° C | 54% | 1015.8 hPa | 0 mm | - | 0 W/m² | - |
| 1788143604 | 31.11° C | 54% | 1015.8 hPa | 0 mm | - | 0 W/m² | - |
| 1788143300 | 31.11° C | 54% | 1015.7 hPa | 0 mm | - | 0 W/m² | - |
| 1788142998 | 31.11° C | 54% | 1015.6 hPa | 0 mm | - | 0 W/m² | - |
| 1788142694 | 31.11° C | 54% | 1015.6 hPa | 0 mm | - | 0 W/m² | - |
| 1788142388 | 31.11° C | 53% | 1015.6 hPa | 0 mm | - | 0 W/m² | - |
| 1788142084 | 30.56° C | 53% | 1015.5 hPa | 0 mm | - | 0 W/m² | - |
| 1788141783 | 30.56° C | 53% | 1015.5 hPa | 0 mm | - | 0 W/m² | - |
| 1788141479 | 30.56° C | 52% | 1015.2 hPa | 0 mm | - | 0 W/m² | - |
| 1788141174 | 30.56° C | 53% | 1015.1 hPa | 0 mm | - | 0 W/m² | - |
| 1788140874 | 30° C | 55% | 1015.3 hPa | 0 mm | - | 0 W/m² | - |
| 1788140569 | 30° C | 54% | 1015.2 hPa | 0 mm | - | 0 W/m² | - |
| 1788140265 | 30.56° C | 53% | 1015 hPa | 0 mm | - | 0 W/m² | - |
| 1788139965 | 31.11° C | 50% | 1015 hPa | 0 mm | - | 0 W/m² | - |
| 1788139659 | 31.11° C | 50% | 1014.7 hPa | 0 mm | - | 0 W/m² | - |
| 1788139355 | 31.11° C | 50% | 1014.7 hPa | 0 mm | - | 0 W/m² | - |
| 1788139053 | 31.11° C | 52% | 1014.9 hPa | 0 mm | - | 0 W/m² | - |
| 1788138750 | 31.11° C | 51% | 1014.7 hPa | 0 mm | - | 0 W/m² | - |
| 1788138445 | 31.67° C | 50% | 1014.9 hPa | 0 mm | - | 0 W/m² | - |
| 1788138140 | 32.78° C | 47% | 1014.6 hPa | 0 mm | - | 1 W/m² | - |
| 1788137835 | 32.78° C | 45% | 1014.7 hPa | 0 mm | - | 1 W/m² | - |
* Rain latest hour (hover to see other rain measurements)
** Current wind speed in m/s (hover to see current wind gust speed)